Regional Weather Roundup
Issued by NWS Northern Indiana

Home | Current Version | Previous Version | Graphics & Text | Print | Product List | Glossary On
Versions: 1 2 3 4 5 6 7 8 9 10 11 12 13 14 15 16 17 18 19 20 21 22 23 24 25 26 27 28 29 30 31 32 33 34 35 36 37 38 39 40 41 42 43 44 45 46 47 48 49 50
140
ASUS43 KIWX 130110
RWRIWX

KIWX WEATHER ROUNDUP
NATIONAL WEATHER SERVICE NORTHERN INDIANA
800 PM EST FRI FEB 12 2016

NOTE: "FAIR" INDICATES FEW OR NO CLOUDS BELOW 12,000 FEET WITH NO
SIGNIFICANT WEATHER AND/OR OBSTRUCTIONS TO VISIBILITY.

* THESE STATIONS ARE NOT UNDER NWS QUALITY CONTROL. THEY ALSO MAY NOT
  REPORT WEATHER SUCH AS PRECIPITATION OR FOG.

INZ001>027-130200-
NORTHERN INDIANA

CITY           SKY/WX    TMP DP  RH WIND       PRES   REMARKS
GARY*          PTCLDY    19  -4  35 NW29G41   30.31R WCI   1
VALPARAISO     CLOUDY    19   0  43 NW22G35   30.26R WCI   2
MICHIGAN CITY* CLOUDY    19   3  49 NW21G32   30.27R WCI   3
LAPORTE*       CLOUDY    19   6  57 NW22G36   30.24R HAZE    WCI   3
KNOX*          CLOUDY    19   9  63 NW25      30.25R WCI   2
SOUTH BEND     CLOUDY    15   5  64 N17G30    30.23R WCI  -1
ELKHART*       LGT SNOW  16  10  79 NW17G30   30.22R WCI   0
GOSHEN         LGT SNOW  15   9  76 NW24G35   30.20R VSB 1   WCI  -4
MONTICELLO*    CLOUDY    20   3  48 NW15G22   30.25R WCI   6
LOGANSPORT*    MOCLDY    21   3  45 NW10G18   30.24R WCI  10
ROCHESTER*     CLEAR     21   3  45 NW18G24   30.22R WCI   6
WARSAW*        FLURRIES  18  10  73 NW13G20   30.20R WCI   4
ANGOLA*        MOCLDY    14   9  79 NW21      30.12R WCI  -4
FORT WAYNE     LGT SNOW  18  12  77 NW14G20   30.19R WCI   4
HUNTINGTON*    LGT SNOW  17  11  76 NW9G18    30.19R VSB 1   WCI   6
PERU/GRISSOM   PTCLDY    19   7  59 NW16      30.20R WCI   4
MARION*        PTCLDY    18  -1  42 NW10G17   30.21R WCI   6

$$
INZ028>050-130200-
CENTRAL INDIANA

CITY           SKY/WX    TMP DP  RH WIND       PRES   REMARKS
LAFAYETTE      CLEAR     19   6  57 NW12      30.28R WCI   7
KOKOMO*        MOCLDY    19   7  58 N18G24    30.22R WCI   4
MUNCIE*        CLOUDY    20  11  68 NW13      30.19R WCI   7
INDIANAPOLIS   FLURRIES  23  10  57 NW21      30.23R WCI   8

$$
MIZ043>046-050>051-056>058-064>065-071>073-077>080-130200-
SOUTHWEST LOWER MICHIGAN

CITY           SKY/WX    TMP DP  RH WIND       PRES   REMARKS
BATTLE CREEK   PTCLDY    13   5  70 NW12      30.15R WCI  -1
BENTON HARBOR  LGT SNOW  17   6  62 NW16G28   30.24R WCI   2
COLDWATER*     FLURRIES  15   9  76 NW12G22   30.14R WCI   1
HILLSDALE*     CLEAR     13   5  71 NW16G24   30.09R WCI  -4
HOLLAND        LGT SNOW  14   9  80 N13G23    30.22R WCI   0
GRAND RAPIDS   MOCLDY    13   4  67 N15G23    30.18R WCI  -3
KALAMAZOO      LGT SNOW  15  10  80 NW9       30.16R VSB 1   WCI   3
STURGIS*       LGT SNOW  14   9  80 NW13G21   30.15R WCI   0
THREE RIVERS*  FAIR      15   8  76 NW15G21   30.18R WCI  -1

$$
OHZ001>008-015>018-024>025-130200-
NORTHWEST OHIO

CITY           SKY/WX    TMP DP  RH WIND       PRES   REMARKS
DEFIANCE       MOCLDY    18   9  68 NW12      30.16R WCI   5
FINDLAY        CLEAR     18   8  65 W17G26    30.11R WCI   3
TOLEDO EXPRESS MOCLDY    16   8  71 NW13      30.11R WCI   2
TOLEDO METCALF MOCLDY    17   9  70 NW15      30.11R WCI   2
LIMA           CLEAR     17  10  74 NW18      30.12R WCI   1

$$
AND FOR LAKE MICHIGAN COASTAL AND OPEN LAKE BUOY OBSERVATIONS

STATION/POSITION TEMP    WIND        PRES    VSBY  WAVE
                 AIR SEA DIR/SP/G                  HT/PER
                 (F)     (DEG/KT/KT) (MB)    (MI)  (FT/S)
CALUMET HARBOR    18                 1024.3R
MICHIGAN CITY     20     290/ 28/ 34   N/A
BURNS HARBOR      20     320/ 23/ 29 1023.7R
SAINT JOSEPH      19     310/ 26/ 32 1024.4R

$$
&&




USA.gov is the U.S. government's official web portal to all federal, state and local government web resources and services.